Карточка аэропорта UWLW

Внимание!
Информация на этой странице в стадии наполнения.
Если вы не увидели какой-то информации, или заметили неточность - пожалуйста сообщите нам!
Спасибо!
Команда RU-STAFF
Название аэропортаВосточный
Название аэропорта (англ.)Vostochny
Превышение252 ft. (76.8 m.)
Координаты54°24', 48°48'
Высота перехода900m
Эшелон переходаQFE>=726mm:FL050; QFE<726:FL060
Коды ответчика6725-6727
Зона ОрВДСамара РПИ (UWWW)
Данные METARUWLW 201700Z 32003MPS CAVOK 12/04 Q1021 R02/CLRD60 NOSIG RMK QFE759/1012
Проноз погоды (TAF)UWLW 201350Z 2015/2115 03003MPS 9999 SCT020 TX22/2111Z TN09/2102Z TEMPO 2015/2020 36005G10MPS BKN016CB BECMG 2020/2021 02006G12MPS TEMPO 2021/2112 05008G14MPS -SHRA BKN016CB
NOTAMshow/hide NOTAM
AWOS   TABLE

Информация о ВПП

ВПП Длина ВПП (м.) Покрытие Курс ВПП Частота ILS
025000Железобетон20110.1
205000Железобетон200110.1

Диспетчерские позиции


Сценарии



Спутниковое изображение